sat.trackr.live / text

‹ back to catalog

STARLINK-32906

NORAD 63080 · 2025-037D

PAYLOAD ACTIVE UNKNOWN

§ Identity

Operator
Country
US
Launch date
2025-02-23
Launch site
AFWTR
Launch vehicle
Mass (kg)
RCS (m²)

Purposes: comms

External: N2YO · Heavens-Above · Gunter

§ Orbital elements

Epoch: 2026-05-25T02:31:06.985344Z

Period
96.11 min
Inclination
70.0001°
Eccentricity
0.0003126
Mean motion
14.98330778 rev/d
Perigee alt
569.9 km
Apogee alt
574.2 km
Semi-major
6,950.2 km
B*
4.5027e-4
RAAN
161.9689°
Arg perigee
268.0466°
Mean anomaly
92.0335°
Rev number
7,004

§ Raw data

STARLINK-329061 63080U 25037D   26145.10494196  .00005284  00000+0  45027-3 0  99952 63080  70.0001 161.9689 0003126 268.0466  92.0335 14.98330778 70044

JSON: /api/v1/satellites/63080 · /tle

For live sub-satellite position, see the globe view (requires WebGL).

§ Visibility from observer

Set your observer location to see the next 7 days of passes ≥ 10°. The values pass through the URL so the page stays shareable.

No JS? Fill the form by hand. The geolocation button needs JavaScript.